LIFSTR2 MYGF-KFLL

Flight info

Callsign LIFSTR2
Flight time N/A
Altitude 1500
Route DIRECT
Aircraft H145/L-SDE2E3GHIJ1RWZ/S

Departure

Time 2026-05-04 03:19
Airport Grand Bahama International Airport (MYGF)

Arrival

Time N/A
Airport Fort Lauderdale Hollywood International Airport (KFLL)
Time Latitude Longitude Altitude Speed Heading
2026-05-04 03:14 26.54829 -78.70586 7 ft 0 kts 176°
2026-05-04 03:18 26.54828 -78.70587 21 ft 2 kts 179°
2026-05-04 03:18 26.54796 -78.70646 364 ft 15 kts 221°
2026-05-04 03:19 26.54797 -78.70777 866 ft 22 kts 261°
2026-05-04 03:19 26.54835 -78.71106 1288 ft 64 kts 251°
2026-05-04 03:19 26.54742 -78.71734 1635 ft 99 kts 245°
2026-05-04 03:19 26.54574 -78.72580 1793 ft 122 kts 246°
2026-05-04 03:20 26.54355 -78.73556 1827 ft 135 kts 245°
2026-05-04 03:20 26.54095 -78.74592 1780 ft 141 kts 246°
2026-05-04 03:20 26.53804 -78.75656 1694 ft 144 kts 246°
2026-05-04 03:20 26.53495 -78.76705 1537 ft 144 kts 247°
2026-05-04 03:21 26.53172 -78.77750 1369 ft 142 kts 248°
2026-05-04 03:21 26.52843 -78.78784 1251 ft 140 kts 247°
2026-05-04 03:21 26.52516 -78.79798 1130 ft 138 kts 246°
2026-05-04 03:21 26.52190 -78.80799 1007 ft 137 kts 248°
2026-05-04 03:22 26.51863 -78.81799 903 ft 137 kts 248°
2026-05-04 03:22 26.51704 -78.82798 1086 ft 123 kts 271°
2026-05-04 03:22 26.51907 -78.83666 1374 ft 109 kts 297°
2026-05-04 03:22 26.52373 -78.84267 1523 ft 98 kts 329°
2026-05-04 03:23 26.52939 -78.84647 1724 ft 92 kts 334°
2026-05-04 03:23 26.53488 -78.84983 1746 ft 88 kts 335°
2026-05-04 03:23 26.54008 -78.85286 1703 ft 83 kts 334°
2026-05-04 03:23 26.54511 -78.85591 1672 ft 82 kts 326°
2026-05-04 03:24 26.54827 -78.86101 1609 ft 80 kts 285°
2026-05-04 03:24 26.54809 -78.86701 1561 ft 76 kts 248°
2026-05-04 03:24 26.54686 -78.87270 1516 ft 75 kts 253°
2026-05-04 03:24 26.54604 -78.87844 1487 ft 75 kts 258°
2026-05-04 03:25 26.54565 -78.88414 1471 ft 74 kts 265°
2026-05-04 03:25 26.54566 -78.88992 1431 ft 74 kts 268°
2026-05-04 03:25 26.54609 -78.89569 1416 ft 74 kts 275°
2026-05-04 03:25 26.54693 -78.90140 1448 ft 74 kts 278°
2026-05-04 03:26 26.54817 -78.90700 1504 ft 74 kts 284°
2026-05-04 03:26 26.54981 -78.91242 1480 ft 74 kts 290°
2026-05-04 03:26 26.55082 -78.91791 1515 ft 71 kts 251°
2026-05-04 03:26 26.54795 -78.92207 1515 ft 68 kts 215°
2026-05-04 03:27 26.54416 -78.92561 1476 ft 73 kts 216°
2026-05-04 03:27 26.54011 -78.92937 1415 ft 77 kts 214°
2026-05-04 03:27 26.53540 -78.93185 1355 ft 76 kts 183°
2026-05-04 03:27 26.53035 -78.93070 1268 ft 75 kts 149°
2026-05-04 03:28 26.52613 -78.92730 1203 ft 77 kts 158°
2026-05-04 03:28 26.52084 -78.92827 1085 ft 83 kts 208°
2026-05-04 03:28 26.51628 -78.93227 1122 ft 84 kts 215°
2026-05-04 03:28 26.51178 -78.93656 1215 ft 86 kts 216°
2026-05-04 03:29 26.50721 -78.94091 1312 ft 87 kts 217°
2026-05-04 03:29 26.50257 -78.94533 1417 ft 88 kts 216°
2026-05-04 03:29 26.49791 -78.94977 1530 ft 88 kts 217°
2026-05-04 03:29 26.49325 -78.95420 1634 ft 88 kts 217°
2026-05-04 03:30 26.48861 -78.95861 1691 ft 87 kts 217°
2026-05-04 03:30 26.48417 -78.96324 1689 ft 87 kts 220°
2026-05-04 03:30 26.48011 -78.96818 1617 ft 86 kts 224°
2026-05-04 03:30 26.47641 -78.97330 1450 ft 84 kts 229°
2026-05-04 03:31 26.47303 -78.97856 1256 ft 83 kts 231°